When you browse on this site, cookies collect data to enhance your experience and personalize the content and advertising you see.
Visit our Privacy Policy to learn more. By continuing to use the site, you agree to this use of cookies and data.
  • In United Kingdom
  • List of Countries
  • For 7 days
  • Water Temperature
  • Weather Map
  • Weather Widgets
  • user-avatar
    Login

    Hourly Weather Netivot

    Today, 19 February, Wednesday

    Time Temperature Precipitation Wind Pressure Humidity
    00:00 +14°C° 0 mm 4 mps 747 mmHg 81%
    01:00 +13°C° 0 mm 4 mps 747 mmHg 82%
    02:00 +13°C° 0 mm 4 mps 747 mmHg 81%
    03:00 +13°C° 0.1 mm 4 mps 747 mmHg 82%
    04:00 +12°C° 0.1 mm 4 mps 747 mmHg 83%
    05:00 +12°C° 0.1 mm 5 mps 747 mmHg 84%
    06:00 +12°C° 0.4 mm 5 mps 748 mmHg 84%
    07:00 +13°C° 0.4 mm 5 mps 748 mmHg 83%
    08:00 +13°C° 0.4 mm 6 mps 748 mmHg 82%
    09:00 +14°C° 0.7 mm 5 mps 748 mmHg 76%
    10:00 +15°C° 0.7 mm 5 mps 748 mmHg 71%
    11:00 +15°C° 0.7 mm 4 mps 748 mmHg 65%
    12:00 +16°C° 0.4 mm 5 mps 747 mmHg 64%
    13:00 +16°C° 0.4 mm 5 mps 747 mmHg 63%
    14:00 +16°C° 0.4 mm 6 mps 747 mmHg 62%
    15:00 +15°C° 0.3 mm 6 mps 747 mmHg 66%
    16:00 +15°C° 0.3 mm 6 mps 747 mmHg 70%
    17:00 +14°C° 0.3 mm 7 mps 747 mmHg 74%
    18:00 +14°C° 0.6 mm 7 mps 748 mmHg 77%
    19:00 +14°C° 0.6 mm 7 mps 748 mmHg 80%
    20:00 +14°C° 0.6 mm 7 mps 748 mmHg 83%
    21:00 +12°C° 0.4 mm 7 mps 749 mmHg 84%
    22:00 +13°C° 0.4 mm 6 mps 749 mmHg 85%
    23:00 +13°C° 0.4 mm 5 mps 749 mmHg 86%

    Tomorrow, 20 February, Thursday

    Time Temperature Precipitation Wind Pressure Humidity
    00:00 +13°C° 0.3 mm 5 mps 750 mmHg 86%
    01:00 +13°C° 0.3 mm 5 mps 750 mmHg 87%
    02:00 +13°C° 0.3 mm 4 mps 750 mmHg 88%
    03:00 +12°C° 0.3 mm 4 mps 750 mmHg 87%
    04:00 +12°C° 0.3 mm 4 mps 750 mmHg 87%
    05:00 +12°C° 0.3 mm 3 mps 750 mmHg 86%
    06:00 +13°C° 0.2 mm 3 mps 751 mmHg 84%
    07:00 +14°C° 0.2 mm 3 mps 751 mmHg 82%
    08:00 +14°C° 0.2 mm 3 mps 752 mmHg 79%
    09:00 +16°C° 0.2 mm 3 mps 752 mmHg 76%
    10:00 +15°C° 0.2 mm 4 mps 752 mmHg 73%
    11:00 +17°C° 0.2 mm 4 mps 752 mmHg 69%
    12:00 +17°C° 0.1 mm 4 mps 751 mmHg 70%
    13:00 +17°C° 0.1 mm 4 mps 751 mmHg 71%
    14:00 +15°C° 0.1 mm 5 mps 751 mmHg 71%
    15:00 +15°C° 0 mm 4 mps 751 mmHg 73%
    16:00 +15°C° 0 mm 4 mps 751 mmHg 74%
    17:00 +14°C° 0 mm 3 mps 750 mmHg 75%
    18:00 +14°C° 0 mm 3 mps 751 mmHg 77%
    19:00 +14°C° 0 mm 2 mps 751 mmHg 80%
    20:00 +13°C° 0 mm 2 mps 751 mmHg 82%
    21:00 +13°C° 0 mm 2 mps 751 mmHg 79%
    22:00 +12°C° 0 mm 3 mps 751 mmHg 76%
    23:00 +12°C° 0 mm 3 mps 751 mmHg 73%

    Day after tomorrow, 21 February, Friday

    Time Temperature Precipitation Wind Pressure Humidity
    00:00 +12°C° 0 mm 3 mps 750 mmHg 73%
    01:00 +12°C° 0 mm 3 mps 750 mmHg 73%
    02:00 +12°C° 0 mm 3 mps 750 mmHg 72%
    03:00 +12°C° 0 mm 3 mps 750 mmHg 73%
    04:00 +12°C° 0 mm 3 mps 749 mmHg 73%
    05:00 +12°C° 0 mm 3 mps 749 mmHg 73%
    06:00 +12°C° 0 mm 3 mps 749 mmHg 71%
    07:00 +13°C° 0 mm 3 mps 750 mmHg 69%
    08:00 +14°C° 0 mm 3 mps 750 mmHg 68%
    15:00 +19°C° 0 mm 4 mps 747 mmHg 45%
    16:00 +18°C° 0 mm 3 mps 747 mmHg 51%
    17:00 +17°C° 0 mm 2 mps 747 mmHg 57%
    18:00 +15°C° 0.1 mm 4 mps 747 mmHg 61%
    19:00 +15°C° 0.1 mm 5 mps 747 mmHg 66%
    20:00 +14°C° 0.1 mm 7 mps 748 mmHg 70%
    21:00 +14°C° 0.5 mm 6 mps 748 mmHg 72%
    22:00 +13°C° 0.5 mm 6 mps 748 mmHg 73%
    23:00 +13°C° 0.5 mm 6 mps 748 mmHg 75%

    22 February, Saturday

    Time Temperature Precipitation Wind Pressure Humidity
    00:00 +13°C° 0.3 mm 6 mps 748 mmHg 76%
    01:00 +11°C° 0.3 mm 6 mps 748 mmHg 76%
    02:00 +11°C° 0.3 mm 6 mps 748 mmHg 77%
    03:00 +12°C° 0.6 mm 5 mps 748 mmHg 79%
    04:00 +12°C° 0.6 mm 5 mps 748 mmHg 82%
    05:00 +10°C° 0.6 mm 5 mps 749 mmHg 84%
    06:00 +11°C° 0.2 mm 6 mps 749 mmHg 84%
    07:00 +11°C° 0.2 mm 6 mps 749 mmHg 83%
    08:00 +11°C° 0.2 mm 6 mps 750 mmHg 83%
    09:00 +13°C° 0.1 mm 6 mps 750 mmHg 78%
    10:00 +14°C° 0.1 mm 6 mps 750 mmHg 73%
    11:00 +15°C° 0.1 mm 7 mps 750 mmHg 68%
    12:00 +15°C° 0.1 mm 6 mps 750 mmHg 66%
    13:00 +15°C° 0.1 mm 6 mps 750 mmHg 63%
    14:00 +16°C° 0.1 mm 6 mps 749 mmHg 61%
    15:00 +15°C° 0 mm 5 mps 750 mmHg 62%
    16:00 +15°C° 0 mm 5 mps 750 mmHg 63%
    17:00 +15°C° 0 mm 4 mps 750 mmHg 64%
    18:00 +14°C° 0 mm 4 mps 750 mmHg 66%
    19:00 +13°C° 0 mm 3 mps 750 mmHg 68%
    20:00 +13°C° 0 mm 3 mps 751 mmHg 71%
    21:00 +13°C° 0 mm 3 mps 751 mmHg 73%
    22:00 +12°C° 0 mm 3 mps 751 mmHg 75%
    23:00 +12°C° 0 mm 3 mps 751 mmHg 77%

    23 February, Sunday

    Time Temperature Precipitation Wind Pressure Humidity
    00:00 +12°C° 0.1 mm 3 mps 751 mmHg 78%
    01:00 +12°C° 0.1 mm 4 mps 750 mmHg 80%
    02:00 +12°C° 0.1 mm 4 mps 750 mmHg 81%
    03:00 +12°C° 0.1 mm 4 mps 750 mmHg 81%
    04:00 +11°C° 0.1 mm 4 mps 750 mmHg 81%
    05:00 +11°C° 0.1 mm 4 mps 750 mmHg 80%
    06:00 +11°C° 0.1 mm 4 mps 750 mmHg 78%
    07:00 +11°C° 0.1 mm 4 mps 751 mmHg 76%
    08:00 +11°C° 0.1 mm 4 mps 751 mmHg 74%
    09:00 +12°C° 0 mm 4 mps 751 mmHg 69%
    10:00 +13°C° 0 mm 3 mps 750 mmHg 64%
    11:00 +14°C° 0 mm 3 mps 750 mmHg 59%
    12:00 +16°C° 0 mm 3 mps 750 mmHg 57%
    13:00 +16°C° 0 mm 3 mps 749 mmHg 55%
    14:00 +16°C° 0 mm 3 mps 749 mmHg 53%
    15:00 +16°C° 0 mm 3 mps 748 mmHg 59%
    16:00 +14°C° 0 mm 3 mps 748 mmHg 65%
    17:00 +13°C° 0 mm 3 mps 748 mmHg 70%
    18:00 +13°C° 0 mm 3 mps 749 mmHg 73%
    19:00 +13°C° 0 mm 2 mps 749 mmHg 76%
    20:00 +13°C° 0 mm 1 mps 749 mmHg 79%
    21:00 +12°C° 0 mm 1 mps 749 mmHg 80%
    22:00 +12°C° 0 mm 1 mps 749 mmHg 81%
    23:00 +11°C° 0 mm 0 mps 749 mmHg 82%

    24 February, Monday

    Time Temperature Precipitation Wind Pressure Humidity
    00:00 +11°C° 0 mm 1 mps 749 mmHg 83%
    01:00 +11°C° 0 mm 1 mps 748 mmHg 83%
    02:00 +11°C° 0 mm 1 mps 748 mmHg 83%
    03:00 +11°C° 0 mm 1 mps 748 mmHg 81%
    04:00 +12°C° 0 mm 1 mps 748 mmHg 79%
    05:00 +12°C° 0 mm 1 mps 747 mmHg 76%
    06:00 +12°C° 0 mm 1 mps 747 mmHg 74%
    07:00 +13°C° 0 mm 1 mps 747 mmHg 72%
    08:00 +13°C° 0 mm 1 mps 747 mmHg 69%
    09:00 +13°C° 0.1 mm 2 mps 747 mmHg 69%
    10:00 +13°C° 0.1 mm 2 mps 747 mmHg 68%
    11:00 +13°C° 0.1 mm 2 mps 747 mmHg 67%
    12:00 +12°C° 0.2 mm 2 mps 747 mmHg 71%
    13:00 +12°C° 0.2 mm 2 mps 746 mmHg 75%
    14:00 +12°C° 0.2 mm 2 mps 746 mmHg 79%
    15:00 +12°C° 0.4 mm 2 mps 746 mmHg 80%
    16:00 +12°C° 0.4 mm 2 mps 746 mmHg 80%
    17:00 +11°C° 0.4 mm 1 mps 746 mmHg 81%
    18:00 +11°C° 0 mm 1 mps 747 mmHg 83%
    19:00 +11°C° 0 mm 1 mps 747 mmHg 85%
    20:00 +9°C° 0 mm 0 mps 747 mmHg 87%
    21:00 +10°C° 0 mm 1 mps 747 mmHg 87%
    22:00 +9°C° 0 mm 2 mps 747 mmHg 86%
    23:00 +9°C° 0 mm 3 mps 747 mmHg 85%
    Show more